{"data":{"norad_id":62429,"intl_designator":"2024-249W","name":"STARLINK-32418","alt_names":[],"object_type":"PAYLOAD","status":"ACTIVE","operator":null,"country":"US","launch_date":"2024-12-23","launch_site_code":"AFETR","launch_vehicle":null,"mission":null,"orbit_class":"UNKNOWN","rcs_meters":null,"size_class":null,"mass_kg":null,"dimensions":null,"purposes":["comms"],"wikipedia_slug":null,"has_3d_model":false,"image_url":null,"decayed_at":null,"tle_current":{"epoch":"2026-05-24T23:48:03.479616Z","epoch_age_seconds":72850,"freshness":"FRESH","line1":"1 62429U 24249W   26144.99170694  .00011666  00000+0  43268-3 0  9991","line2":"2 62429  42.9997 243.1117 0002945 278.9509  81.1009 15.27587747 79484","mean_motion":15.27587747,"eccentricity":0.0002945,"inclination_deg":42.9997,"raan_deg":243.1117,"arg_perigee_deg":278.9509,"mean_anomaly_deg":81.1009,"bstar":0.00043268,"rev_number":7948,"period_min":94.266270649787,"perigee_km":481.00528635901,"apogee_km":485.04651130643,"semimajor_km":6861.1628988327,"source":"CELESTRAK","updated_at":"2026-05-25T13:38:19.656416Z"}}}